This is the latest recevied weather packets stored in our database for station/object N6RDS-8. If no packets are shown the sender has not sent any weather packets the latest 10 day(s).
| Time | Temp. | Humidity | Pressure | Rain* | Wind** | Luminosity | Snow |
|---|---|---|---|---|---|---|---|
| 1777587531 | 24.44° C | 39% | 1011.8 hPa | 0 mm | - | 103 W/m² | - |
| 1777587228 | 24.44° C | 45% | 1011.8 hPa | 0 mm | - | 146 W/m² | - |
| 1777586923 | 25° C | 36% | 1012.1 hPa | 0 mm | - | 134 W/m² | - |
| 1777586619 | 24.44° C | 38% | 1012.2 hPa | 0 mm | - | 104 W/m² | - |
| 1777586315 | 25° C | 35% | 1012.2 hPa | 0 mm | - | 104 W/m² | - |
| 1777586013 | 25° C | 34% | 1012.4 hPa | 0 mm | - | 104 W/m² | - |
| 1777585713 | 25.56° C | 33% | 1012.6 hPa | 0 mm | - | 94 W/m² | - |
| 1777585412 | 25.56° C | 32% | 1012.6 hPa | 0 mm | - | 115 W/m² | - |
| 1777585108 | 25.56° C | 33% | 1012.4 hPa | 0 mm | - | 126 W/m² | - |
| 1777584804 | 25.56° C | 33% | 1012.7 hPa | 0 mm | - | 150 W/m² | - |
| 1777584502 | 25.56° C | 33% | 1012.9 hPa | 0 mm | - | 188 W/m² | - |
| 1777584199 | 25° C | 33% | 1012.9 hPa | 0 mm | - | 156 W/m² | - |
| 1777583898 | 25.56° C | 32% | 1013 hPa | 0 mm | - | 177 W/m² | - |
| 1777583594 | 26.11° C | 31% | 1013.2 hPa | 0 mm | - | 225 W/m² | - |
| 1777583293 | 25.56° C | 31% | 1013 hPa | 0 mm | - | 302 W/m² | - |
| 1777582988 | 25.56° C | 31% | 1013.3 hPa | 0 mm | - | 229 W/m² | - |
| 1777582686 | 25.56° C | 31% | 1013.5 hPa | 0 mm | - | 240 W/m² | - |
| 1777582386 | 26.11° C | 30% | 1013.2 hPa | 0 mm | - | 221 W/m² | - |
| 1777582084 | 25.56° C | 31% | 1013.5 hPa | 0 mm | - | 294 W/m² | - |
| 1777581779 | 25.56° C | 31% | 1013.7 hPa | 0 mm | - | 217 W/m² | - |
| 1777581478 | 26.67° C | 30% | 1013.6 hPa | 0 mm | - | 196 W/m² | - |
| 1777581173 | 26.67° C | 30% | 1013.9 hPa | 0 mm | - | 264 W/m² | - |
| 1777580868 | 26.67° C | 29% | 1013.9 hPa | 0 mm | - | 242 W/m² | - |
| 1777580563 | 27.22° C | 29% | 1014 hPa | 0 mm | - | 377 W/m² | - |
| 1777580259 | 27.22° C | 29% | 1013.9 hPa | 0 mm | - | 858 W/m² | - |
* Rain latest hour (hover to see other rain measurements)
** Current wind speed in m/s (hover to see current wind gust speed)